Bloomington, IL

1:17 PM CDT on July 22, 2017 (GMT -0500)
Central Ill Regional

Weather History for KBMI - January, 2014

Change the Weather History Date:

Thursday, January 16, 2014

  Actual Average Record
Temperature  
Mean Temperature 28 °F -  
Max Temperature 37 °F 15 °F 52 °F (2012)
Min Temperature 17 °F 0 °F -22 °F (1977)
Degree Days  
Heating Degree Days 37    
Moisture  
Dew Point 21 °F    
Average Humidity 78    
Maximum Humidity 92    
Minimum Humidity 65    
Precipitation  
Precipitation 0.00 in - - ()
Sea Level Pressure  
Sea Level Pressure 29.72 in    
Wind  
Wind Speed 19 mph (WSW)    
Max Wind Speed 26 mph    
Max Gust Speed 32 mph    
Visibility 8 miles    
Events Snow    
Averages and records for this station are not official NWS values.
T = Trace of Precipitation, MM = Missing Value Source: NWS Daily Summary

Daily Weather History Graph

Daily Weather History Graph

Search for Another Location

Airport or City:

Trip Planner

Search our weather history database for the weather conditions in past years. The results will help you decide how hot, cold, wet, or windy it might be!

Date:

Astronomy

Jan. 16, 2014 Rise Set
Actual Time 7:16 AM CST 4:54 PM CST
Civil Twilight 6:46 AM CST 5:24 PM CST
Nautical Twilight 6:13 AM CST 5:58 PM CST
Astronomical Twilight 5:40 AM CST 6:30 PM CST
Moon 5:46 PM CST (1/16) 7:09 AM CST (1/16)
Length of Visible Light 10h 38m
Length of Day
9h 38m
Full, 100% of the Moon is Illuminated
Jan 16
Full
Jan 23
Last Quarter
Jan 30
New
Feb 6
First Quarter
Feb 14
Full

Hourly Weather History & Observations

Time (CST) Temp. Windchill Dew Point Humidity Pressure Visibility Wind Dir Wind Speed Gust Speed Precip Events Conditions
12:56 AM 21.0 °F 5.0 °F 13.1 °F 71% 29.94 in 10.0 mi SSW 21.9 mph 26.5 mph N/A   Mostly Cloudy
1:07 AM 21.2 °F 5.2 °F 12.2 °F 68% 29.85 in 10.0 mi SSW 21.9 mph - N/A   Mostly Cloudy
1:15 AM 21.2 °F 5.6 °F 14.0 °F 74% 29.84 in 10.0 mi South 20.7 mph - N/A   Mostly Cloudy
1:56 AM 22.1 °F 6.8 °F 14.0 °F 71% 29.89 in 10.0 mi SSW 20.7 mph 28.8 mph N/A   Overcast
2:56 AM 23.0 °F 6.3 °F 15.1 °F 72% 29.82 in 10.0 mi SSW 26.5 mph - 0.00 in   Mostly Cloudy
3:33 AM 24.8 °F 9.0 °F 15.8 °F 69% 29.74 in 10.0 mi SSW 25.3 mph - N/A   Overcast
3:56 AM 23.0 °F 8.0 °F 18.1 °F 82% 29.81 in 10.0 mi SSW 20.7 mph 26.5 mph N/A   Overcast
4:56 AM 23.0 °F 7.6 °F 20.1 °F 89% 29.77 in 10.0 mi SSW 21.9 mph 27.6 mph N/A   Overcast
5:56 AM 24.1 °F 9.8 °F 21.0 °F 88% 29.75 in 10.0 mi SSW 19.6 mph 26.5 mph N/A   Overcast
6:56 AM 24.1 °F 8.3 °F 22.1 °F 92% 29.73 in 10.0 mi SSW 24.2 mph 29.9 mph N/A   Overcast
7:56 AM 25.2 °F 10.4 °F 22.1 °F 88% 29.72 in 7.0 mi SSW 21.9 mph 27.6 mph 0.00 in Snow Light Snow
8:56 AM 26.1 °F 11.3 °F 23.0 °F 88% 29.73 in 10.0 mi SSW 23.0 mph - 0.00 in   Overcast
9:56 AM 28.0 °F 14.9 °F 22.1 °F 78% 29.72 in 10.0 mi SW 19.6 mph - N/A   Mostly Cloudy
10:56 AM 30.0 °F 17.5 °F 22.1 °F 72% 29.69 in 10.0 mi SW 19.6 mph 28.8 mph N/A   Partly Cloudy
11:56 AM 32.9 °F 21.6 °F 24.1 °F 70% 29.65 in 10.0 mi SW 18.4 mph - N/A   Mostly Cloudy
12:56 PM 36.9 °F 26.8 °F 26.1 °F 65% 29.61 in 10.0 mi SW 18.4 mph 23.0 mph N/A   Overcast
1:56 PM 37.9 °F 29.6 °F 27.1 °F 65% 29.61 in 10.0 mi WSW 13.8 mph - N/A   Overcast
2:42 PM 35.6 °F 25.9 °F 28.4 °F 75% 29.57 in 10.0 mi West 16.1 mph 21.9 mph 0.00 in   Overcast
2:45 PM 35.6 °F 25.5 °F 28.4 °F 75% 29.58 in 2.0 mi West 17.3 mph 24.2 mph 0.00 in Snow Light Snow
2:56 PM 32.9 °F 22.4 °F 29.1 °F 86% 29.64 in 2.0 mi West 16.1 mph - 0.00 in Snow Light Snow
3:29 PM 32.0 °F 20.5 °F 28.4 °F 87% 29.61 in 5.0 mi West 18.4 mph 25.3 mph 0.00 in Snow Light Snow
3:46 PM 32.0 °F 19.8 °F 28.4 °F 87% 29.61 in 7.0 mi West 20.7 mph 29.9 mph 0.00 in Snow Light Snow
3:56 PM 32.0 °F 20.5 °F 27.1 °F 82% 29.68 in 10.0 mi West 18.4 mph - 0.00 in Snow Light Snow
4:56 PM 32.0 °F 18.9 °F 22.1 °F 67% 29.71 in 10.0 mi West 24.2 mph 29.9 mph 0.00 in   Mostly Cloudy
5:56 PM 30.0 °F 20.5 °F 20.1 °F 67% 29.74 in 10.0 mi WNW 11.5 mph - N/A   Overcast
6:56 PM 29.1 °F 22.1 °F 21.0 °F 72% 29.75 in 10.0 mi West 6.9 mph - N/A   Partly Cloudy
7:56 PM 27.1 °F - 21.0 °F 78% 29.76 in 10.0 mi Calm Calm - N/A   Mostly Cloudy
8:56 PM 27.1 °F 21.8 °F 21.0 °F 78% 29.75 in 10.0 mi SE 4.6 mph - 0.00 in   Mostly Cloudy
9:56 PM 27.1 °F 19.7 °F 21.0 °F 78% 29.75 in 10.0 mi NE 6.9 mph - 0.00 in   Overcast
10:06 PM 26.6 °F 20.0 °F 21.2 °F 80% 29.69 in 4.0 mi NE 5.8 mph - 0.00 in Snow Light Snow
10:18 PM 26.6 °F 16.2 °F 21.2 °F 80% 29.70 in 6.0 mi North 11.5 mph - 0.00 in Snow Light Snow
10:26 PM 26.6 °F 15.2 °F 21.2 °F 80% 29.70 in 2.5 mi North 13.8 mph - 0.00 in Snow Light Snow
10:31 PM 24.8 °F 11.5 °F 21.2 °F 86% 29.70 in 1.2 mi North 17.3 mph - 0.00 in Snow Light Snow
10:46 PM 24.8 °F 12.9 °F 21.2 °F 86% 29.70 in 1.0 mi North 13.8 mph - 0.00 in Snow Light Snow
10:56 PM 23.0 °F 9.2 °F 21.0 °F 92% 29.76 in 1.5 mi North 17.3 mph - 0.00 in Snow Light Snow
11:00 PM 23.0 °F 10.1 °F 19.4 °F 86% 29.71 in 3.0 mi NNW 15.0 mph - 0.00 in Snow Light Snow
11:32 PM 21.2 °F 5.6 °F 15.8 °F 80% 29.74 in 5.0 mi NW 20.7 mph 28.8 mph 0.00 in Snow Light Snow
11:39 PM 19.4 °F 3.6 °F 14.0 °F 80% 29.74 in 5.0 mi NW 19.6 mph 32.2 mph 0.00 in Snow Light Snow
11:56 PM 17.1 °F 1.5 °F 11.1 °F 77% 29.81 in 5.0 mi NW 17.3 mph 31.1 mph 0.00 in Snow Light Snow